,,PA_Meas_PMT16A,,PR_Meas_QMR101_102,,RH_Meas_QMH101,,SR_Meas_QMS101,,TA_Meas_QMH101,,GenWind,,GenWind,
time,status,PA,status,PR,status,RH,status,SR,status,TA,status,DirAvg,status,SpdAvg,
2012-04-04, 00:00:04,VALID,921.481,VALID,0,VALID,94.2559,VALID,0,VALID,20.1693,VALID,3,VALID,0.744922,
2012-04-04, 00:01:04,VALID,921.483,VALID,0,VALID,94.4008,VALID,0.107441,VALID,20.1483,VALID,3,VALID,0.891797,
2012-04-04, 00:02:04,VALID,921.47,VALID,0,VALID,94.5761,VALID,0,VALID,20.1888,VALID,3,VALID,1.0207,
2012-04-04, 00:03:04,VALID,921.472,VALID,0,VALID,94.5609,VALID,0,VALID,20.1678,VALID,357,VALID,1.06562,
2012-04-04, 00:04:04,VALID,921.448,VALID,0,VALID,94.5685,VALID,0,VALID,20.1678,VALID,357,VALID,1.00937,
2012-04-04, 00:05:04,VALID,921.427,VALID,0,VALID,94.4084,VALID,0,VALID,20.1873,VALID,357,VALID,1.04219,
2012-04-04, 00:06:04,VALID,921.44,VALID,0,VALID,94.2483,VALID,0.107441,VALID,20.1678,VALID,14,VALID,1.42773,
2012-04-04, 00:07:04,VALID,921.414,VALID,0,VALID,94.2407,VALID,0,VALID,20.1678,VALID,11,VALID,1.5625,
2012-04-04, 00:08:04,VALID,921.373,VALID,0,VALID,94.1949,VALID,0,VALID,20.1678,VALID,20,VALID,1.79062,
2012-04-04, 00:09:04,VALID,921.354,VALID,0,VALID,94.1416,VALID,0,VALID,20.1498,VALID,7,VALID,1.34414,
2012-04-04, 00:10:04,VALID,921.333,VALID,0,VALID,94.1263,VALID,0,VALID,20.1693,VALID,7,VALID,1.29336,
2012-04-04, 00:11:04,VALID,921.299,VALID,0,VALID,94.0348,VALID,0,VALID,20.1708,VALID,13,VALID,1.80508,
2012-04-04, 00:12:04,VALID,921.296,VALID,0,VALID,94.0577,VALID,0,VALID,20.1708,VALID,355,VALID,1.2,
2012-04-04, 00:13:04,VALID,921.315,VALID,0,VALID,94.0196,VALID,0,VALID,20.1708,VALID,5,VALID,0.975,
2012-04-04, 00:14:04,VALID,921.309,VALID,0,VALID,94.0272,VALID,0,VALID,20.1708,VALID,5,VALID,0.883203,
2012-04-04, 00:15:04,VALID,921.264,VALID,0,VALID,93.9357,VALID,0,VALID,20.1693,VALID,5,VALID,1.28555,
2012-04-04, 00:16:04,VALID,921.305,VALID,0,VALID,93.8595,VALID,0,VALID,20.1693,VALID,350,VALID,1.05117,
2012-04-04, 00:17:04,VALID,921.242,VALID,0,VALID,93.768,VALID,0,VALID,20.1903,VALID,350,VALID,1.3125,
2012-04-04, 00:18:04,VALID,921.22,VALID,0,VALID,93.7147,VALID,0,VALID,20.1708,VALID,15,VALID,1.61328,
2012-04-04, 00:19:04,VALID,921.215,VALID,0,VALID,93.7604,VALID,0,VALID,20.1708,VALID,15,VALID,1.16758,
2012-04-04, 00:20:04,VALID,921.217,VALID,0,VALID,93.8443,VALID,0,VALID,20.1498,VALID,15,VALID,1.02656,
2012-04-04, 00:21:04,VALID,921.227,VALID,0,VALID,93.9586,VALID,0,VALID,20.1513,VALID,15,VALID,1.35391,
2012-04-04, 00:22:04,VALID,921.227,VALID,0,VALID,93.9815,VALID,0,VALID,20.1303,VALID,15,VALID,1.41445,
2012-04-04, 00:23:04,VALID,921.189,VALID,0,VALID,94.0196,VALID,0,VALID,20.1318,VALID,15,VALID,0.744531,
2012-04-04, 00:24:04,VALID,921.22,VALID,0,VALID,94.0653,VALID,0,VALID,20.1093,VALID,15,VALID,0.775781,
2012-04-04, 00:25:04,VALID,921.179,VALID,0,VALID,94.1644,VALID,0,VALID,20.1093,VALID,15,VALID,0.951563,
2012-04-04, 00:26:04,VALID,921.241,VALID,0,VALID,94.1949,VALID,0,VALID,20.1303,VALID,15,VALID,0.765234,
2012-04-04, 00:27:04,VALID,921.216,VALID,0,VALID,94.2788,VALID,0,VALID,20.1108,VALID,15,VALID,0.793359,
2012-04-04, 00:28:04,VALID,921.245,VALID,0,VALID,94.2864,VALID,0,VALID,20.1108,VALID,15,VALID,0.939062,
2012-04-04, 00:29:04,VALID,921.252,VALID,0,VALID,94.3703,VALID,0,VALID,20.0898,VALID,15,VALID,0.674609,
2012-04-04, 00:30:04,VALID,921.23,VALID,0,VALID,94.3245,VALID,0,VALID,20.0913,VALID,15,VALID,0.692578,
2012-04-04, 00:31:04,VALID,921.211,VALID,0,VALID,94.355,VALID,0,VALID,20.0703,VALID,15,VALID,0.636719,
2012-04-04, 00:32:04,VALID,921.225,VALID,0,VALID,94.3703,VALID,0,VALID,20.0913,VALID,15,VALID,0.723047,
2012-04-04, 00:33:04,VALID,921.182,VALID,0,VALID,94.3931,VALID,0,VALID,20.0703,VALID,8,VALID,1.0875,
2012-04-04, 00:34:04,VALID,921.177,VALID,0,VALID,94.3626,VALID,0,VALID,20.0703,VALID,8,VALID,0.630469,
2012-04-04, 00:35:04,VALID,921.142,VALID,0,VALID,94.3931,VALID,0,VALID,20.0898,VALID,8,VALID,0.983594,
2012-04-04, 00:36:04,VALID,921.145,VALID,0,VALID,94.4008,VALID,0,VALID,20.1108,VALID,8,VALID,0.51875,
2012-04-04, 00:37:04,VALID,921.124,VALID,0,VALID,94.3703,VALID,0,VALID,20.1108,VALID,8,VALID,0.498047,
2012-04-04, 00:38:04,VALID,921.103,VALID,0,VALID,94.3779,VALID,0,VALID,20.1303,VALID,8,VALID,0.633984,
2012-04-04, 00:39:04,VALID,921.062,VALID,0,VALID,94.3703,VALID,0,VALID,20.1483,VALID,8,VALID,0.422656,
2012-04-04, 00:40:04,VALID,921.045,VALID,0,VALID,94.2483,VALID,0,VALID,20.1483,VALID,8,VALID,0.567187,
2012-04-04, 00:41:04,VALID,921.05,VALID,0,VALID,94.2178,VALID,0,VALID,20.1678,VALID,8,VALID,0,
2012-04-04, 00:42:04,VALID,920.992,VALID,0,VALID,94.1644,VALID,0,VALID,20.2068,VALID,8,VALID,0,
2012-04-04, 00:43:04,VALID,920.993,VALID,0,VALID,94.0806,VALID,0,VALID,20.2263,VALID,8,VALID,0,
2012-04-04, 00:44:04,VALID,920.945,VALID,0,VALID,93.89,VALID,0,VALID,20.2458,VALID,8,VALID,0,
2012-04-04, 00:45:04,VALID,920.927,VALID,0,VALID,93.7299,VALID,0,VALID,20.2668,VALID,8,VALID,0,
2012-04-04, 00:46:04,VALID,920.939,VALID,0,VALID,93.6155,VALID,0,VALID,20.2473,VALID,8,VALID,0,
2012-04-04, 00:47:04,VALID,920.927,VALID,0,VALID,93.4936,VALID,0,VALID,20.2473,VALID,8,VALID,0,
2012-04-04, 00:48:04,VALID,920.927,VALID,0,VALID,93.3182,VALID,0,VALID,20.1873,VALID,8,VALID,0,
2012-04-04, 00:49:04,VALID,920.927,VALID,0,VALID,93.4173,VALID,0,VALID,20.1873,VALID,8,VALID,0,
2012-04-04, 00:50:04,VALID,920.926,VALID,0,VALID,93.4707,VALID,0,VALID,20.1678,VALID,8,VALID,0,
2012-04-04, 00:51:04,VALID,920.9,VALID,0,VALID,93.5088,VALID,0.107441,VALID,20.1288,VALID,8,VALID,0,
2012-04-04, 00:52:04,VALID,920.887,VALID,0,VALID,93.4783,VALID,0,VALID,20.1288,VALID,8,VALID,0,
2012-04-04, 00:53:04,VALID,920.836,VALID,0,VALID,93.5012,VALID,0,VALID,20.1093,VALID,8,VALID,0,
2012-04-04, 00:54:04,VALID,920.85,VALID,0,VALID,93.5774,VALID,0,VALID,20.0898,VALID,8,VALID,0.284766,
2012-04-04, 00:55:04,VALID,920.835,VALID,0,VALID,93.6384,VALID,0.107441,VALID,20.0898,VALID,8,VALID,0.403516,
2012-04-04, 00:56:04,VALID,920.812,VALID,0,VALID,93.7223,VALID,0.107441,VALID,20.0898,VALID,8,VALID,0.344141,
2012-04-04, 00:57:04,VALID,920.807,VALID,0,VALID,93.6003,VALID,0,VALID,20.0703,VALID,8,VALID,0.553906,
2012-04-04, 00:58:04,VALID,920.786,VALID,0,VALID,93.5546,VALID,0,VALID,20.0313,VALID,8,VALID,1.02109,
2012-04-04, 00:59:04,VALID,920.788,VALID,0,VALID,93.7909,VALID,0,VALID,20.0328,VALID,8,VALID,0.616016,
2012-04-04, 01:00:04,VALID,920.768,VALID,0,VALID,93.8061,VALID,0.107441,VALID,19.9923,VALID,8,VALID,0.346094,
2012-04-04, 01:01:04,VALID,920.768,VALID,0,VALID,93.7756,VALID,0,VALID,19.9533,VALID,8,VALID,0.612109,
2012-04-04, 01:02:04,VALID,920.788,VALID,0,VALID,94.1416,VALID,0,VALID,19.9338,VALID,8,VALID,0.805469,
2012-04-04, 01:03:04,VALID,920.748,VALID,0,VALID,94.477,VALID,0,VALID,19.9143,VALID,8,VALID,0.943359,
2012-04-04, 01:04:04,VALID,920.774,VALID,0,VALID,94.7438,VALID,0.107441,VALID,19.8738,VALID,8,VALID,1.02344,
2012-04-04, 01:05:04,VALID,920.758,VALID,0,VALID,94.9268,VALID,0,VALID,19.8363,VALID,8,VALID,0.874219,
2012-04-04, 01:06:04,VALID,920.76,VALID,0,VALID,95.1097,VALID,0,VALID,19.8378,VALID,8,VALID,0.599219,
2012-04-04, 01:07:04,VALID,920.769,VALID,0,VALID,95.2241,VALID,0,VALID,19.8378,VALID,8,VALID,0.455469,
2012-04-04, 01:08:04,VALID,920.773,VALID,0,VALID,95.3156,VALID,0,VALID,19.7973,VALID,8,VALID,0.39375,
2012-04-04, 01:09:04,VALID,920.764,VALID,0,VALID,95.4223,VALID,0,VALID,19.8168,VALID,8,VALID,0.167578,
2012-04-04, 01:10:04,VALID,920.744,VALID,0,VALID,95.4757,VALID,0.107441,VALID,19.8168,VALID,8,VALID,0.499609,
2012-04-04, 01:11:04,VALID,920.718,VALID,0,VALID,95.5748,VALID,0,VALID,19.8168,VALID,8,VALID,0.3875,
2012-04-04, 01:12:04,VALID,920.695,VALID,0,VALID,95.6129,VALID,0,VALID,19.8378,VALID,8,VALID,0.00703125,
2012-04-04, 01:13:04,VALID,920.664,VALID,0,VALID,95.6281,VALID,0,VALID,19.8573,VALID,8,VALID,0.0816406,
2012-04-04, 01:14:04,VALID,920.645,VALID,0,VALID,95.6281,VALID,0.107441,VALID,19.8168,VALID,8,VALID,0,
2012-04-04, 01:15:04,VALID,920.651,VALID,0,VALID,95.5976,VALID,0,VALID,19.8168,VALID,8,VALID,0,
2012-04-04, 01:16:04,VALID,920.626,VALID,0,VALID,95.5824,VALID,0,VALID,19.8168,VALID,8,VALID,0.455469,
2012-04-04, 01:17:04,VALID,920.63,VALID,0,VALID,95.6357,VALID,0,VALID,19.7973,VALID,8,VALID,0.494531,
2012-04-04, 01:18:04,VALID,920.64,VALID,0,VALID,95.6815,VALID,0,VALID,19.8183,VALID,8,VALID,0.366016,
2012-04-04, 01:19:04,VALID,920.646,VALID,0,VALID,95.7196,VALID,0,VALID,19.8378,VALID,8,VALID,0.220703,
2012-04-04, 01:20:04,VALID,920.647,VALID,0,VALID,95.7501,VALID,0,VALID,19.8558,VALID,8,VALID,0.319922,
2012-04-04, 01:21:04,VALID,920.645,VALID,0,VALID,95.6815,VALID,0,VALID,19.8573,VALID,8,VALID,0,
2012-04-04, 01:22:04,VALID,920.644,VALID,0,VALID,95.5824,VALID,0,VALID,19.7973,VALID,8,VALID,0,
2012-04-04, 01:23:04,VALID,920.647,VALID,0,VALID,95.5138,VALID,0,VALID,19.7973,VALID,8,VALID,0,
2012-04-04, 01:24:04,VALID,920.613,VALID,0,VALID,95.4909,VALID,0,VALID,19.7778,VALID,8,VALID,0,
2012-04-04, 01:25:04,VALID,920.59,VALID,0,VALID,95.5824,VALID,0,VALID,19.8183,VALID,8,VALID,0,
2012-04-04, 01:26:04,VALID,920.554,VALID,0,VALID,95.6205,VALID,0,VALID,19.8378,VALID,8,VALID,0.0171875,
2012-04-04, 01:27:04,VALID,920.498,VALID,0,VALID,95.5824,VALID,0,VALID,19.8183,VALID,8,VALID,0.567187,
2012-04-04, 01:28:04,VALID,920.512,VALID,0,VALID,95.6815,VALID,0,VALID,19.8363,VALID,8,VALID,0.744531,
2012-04-04, 01:29:04,VALID,920.509,VALID,0,VALID,95.651,VALID,0,VALID,19.8168,VALID,8,VALID,0.441797,
2012-04-04, 01:30:04,VALID,920.467,VALID,0,VALID,95.5214,VALID,0,VALID,19.8378,VALID,8,VALID,0.444141,
2012-04-04, 01:31:04,VALID,920.468,VALID,0,VALID,95.5138,VALID,0,VALID,19.8168,VALID,8,VALID,0.768359,
2012-04-04, 01:32:04,VALID,920.472,VALID,0,VALID,95.4223,VALID,0,VALID,19.7973,VALID,8,VALID,0.794531,
2012-04-04, 01:33:04,VALID,920.458,VALID,0,VALID,95.4604,VALID,0,VALID,19.7583,VALID,8,VALID,0.871875,
2012-04-04, 01:34:04,VALID,920.47,VALID,0,VALID,95.5519,VALID,0,VALID,19.7598,VALID,8,VALID,1.00117,
2012-04-04, 01:35:04,VALID,920.45,VALID,0,VALID,95.6053,VALID,0,VALID,19.7793,VALID,8,VALID,0.8625,
2012-04-04, 01:36:04,VALID,920.466,VALID,0,VALID,95.5976,VALID,0,VALID,19.7388,VALID,8,VALID,0.556641,
2012-04-04, 01:37:04,VALID,920.466,VALID,0,VALID,95.5138,VALID,0,VALID,19.6998,VALID,8,VALID,0.628125,
2012-04-04, 01:38:04,VALID,920.452,VALID,0,VALID,95.6357,VALID,0,VALID,19.7193,VALID,8,VALID,0.734375,
2012-04-04, 01:39:04,VALID,920.448,VALID,0,VALID,95.7272,VALID,0,VALID,19.7403,VALID,8,VALID,0.8375,
2012-04-04, 01:40:04,VALID,920.414,VALID,0,VALID,95.8187,VALID,0,VALID,19.7598,VALID,8,VALID,0.688281,
2012-04-04, 01:41:04,VALID,920.429,VALID,0,VALID,95.8492,VALID,0,VALID,19.7403,VALID,8,VALID,0.589063,
2012-04-04, 01:42:04,VALID,920.38,VALID,0,VALID,95.8873,VALID,0,VALID,19.7403,VALID,8,VALID,0.510547,
2012-04-04, 01:43:04,VALID,920.366,VALID,0,VALID,95.8721,VALID,0,VALID,19.7403,VALID,8,VALID,0.352344,
2012-04-04, 01:44:04,VALID,920.327,VALID,0,VALID,95.8797,VALID,0,VALID,19.6803,VALID,8,VALID,0.241406,
2012-04-04, 01:45:04,VALID,920.331,VALID,0,VALID,95.7196,VALID,0,VALID,19.6608,VALID,8,VALID,0.116406,
2012-04-04, 01:46:04,VALID,920.287,VALID,0,VALID,95.773,VALID,0,VALID,19.6428,VALID,8,VALID,0,
2012-04-04, 01:47:04,VALID,920.266,VALID,0,VALID,95.8568,VALID,0,VALID,19.6233,VALID,8,VALID,0,
2012-04-04, 01:48:04,VALID,920.25,VALID,0,VALID,95.9407,VALID,0,VALID,19.6233,VALID,8,VALID,0,
2012-04-04, 01:49:04,VALID,920.255,VALID,0,VALID,96.0398,VALID,0,VALID,19.6623,VALID,8,VALID,0,
2012-04-04, 01:50:04,VALID,920.227,VALID,0,VALID,96.0779,VALID,0,VALID,19.6818,VALID,8,VALID,0,
2012-04-04, 01:51:04,VALID,920.19,VALID,0,VALID,96.1313,VALID,0,VALID,19.6608,VALID,8,VALID,0.0976563,
2012-04-04, 01:52:04,VALID,920.202,VALID,0,VALID,96.1846,VALID,0,VALID,19.7208,VALID,8,VALID,0,
2012-04-04, 01:53:04,VALID,920.174,VALID,0,VALID,96.238,VALID,0,VALID,19.6998,VALID,8,VALID,0,
2012-04-04, 01:54:04,VALID,920.202,VALID,0,VALID,96.2304,VALID,0,VALID,19.7013,VALID,8,VALID,0,
2012-04-04, 01:55:04,VALID,920.18,VALID,0,VALID,96.1465,VALID,0,VALID,19.6623,VALID,8,VALID,0,
2012-04-04, 01:56:04,VALID,920.199,VALID,0,VALID,96.0017,VALID,0,VALID,19.5843,VALID,8,VALID,0.0046875,
2012-04-04, 01:57:04,VALID,920.176,VALID,0,VALID,95.8416,VALID,0,VALID,19.4868,VALID,8,VALID,0.483594,
2012-04-04, 01:58:04,VALID,920.217,VALID,0,VALID,96.0779,VALID,0,VALID,19.4868,VALID,8,VALID,0.549219,
2012-04-04, 01:59:04,VALID,920.211,VALID,0,VALID,96.3219,VALID,0,VALID,19.5243,VALID,8,VALID,0.579687,
2012-04-04, 02:00:04,VALID,920.192,VALID,0,VALID,96.4362,VALID,0,VALID,19.6053,VALID,8,VALID,0.741016,
2012-04-04, 02:01:04,VALID,920.2,VALID,0,VALID,96.5124,VALID,0,VALID,19.6023,VALID,8,VALID,0.776563,
2012-04-04, 02:02:04,VALID,920.148,VALID,0,VALID,96.4896,VALID,0,VALID,19.5843,VALID,8,VALID,0.821094,
2012-04-04, 02:03:04,VALID,920.161,VALID,0,VALID,96.5353,VALID,0,VALID,19.5843,VALID,8,VALID,0.720312,
2012-04-04, 02:04:04,VALID,920.095,VALID,0,VALID,96.5429,VALID,0,VALID,19.5648,VALID,8,VALID,0.698828,
2012-04-04, 02:05:04,VALID,920.114,VALID,0,VALID,96.642,VALID,0,VALID,19.5843,VALID,8,VALID,0.538281,
2012-04-04, 02:06:04,VALID,920.091,VALID,0,VALID,96.6954,VALID,0,VALID,19.6038,VALID,8,VALID,0.390625,
2012-04-04, 02:07:04,VALID,920.076,VALID,0,VALID,96.6725,VALID,0,VALID,19.6038,VALID,8,VALID,0.139453,
2012-04-04, 02:08:04,VALID,920.023,VALID,0,VALID,96.703,VALID,0,VALID,19.6053,VALID,8,VALID,0.164453,
2012-04-04, 02:09:04,VALID,920.005,VALID,0,VALID,96.642,VALID,0,VALID,19.5648,VALID,8,VALID,0,
2012-04-04, 02:10:04,VALID,920.039,VALID,0,VALID,96.6725,VALID,0,VALID,19.5453,VALID,8,VALID,0,
2012-04-04, 02:11:04,VALID,919.983,VALID,0,VALID,96.7869,VALID,0,VALID,19.5648,VALID,8,VALID,0,
2012-04-04, 02:12:04,VALID,919.974,VALID,0,VALID,96.8098,VALID,0,VALID,19.6038,VALID,8,VALID,0,
2012-04-04, 02:13:04,VALID,919.95,VALID,0,VALID,96.8021,VALID,0,VALID,19.6038,VALID,8,VALID,0,
2012-04-04, 02:14:04,VALID,919.95,VALID,0,VALID,96.6878,VALID,0,VALID,19.5648,VALID,8,VALID,0,
2012-04-04, 02:15:04,VALID,919.937,VALID,0,VALID,96.7869,VALID,0,VALID,19.5648,VALID,8,VALID,0,
2012-04-04, 02:16:04,VALID,919.922,VALID,0,VALID,96.8098,VALID,0,VALID,19.6248,VALID,8,VALID,0,
2012-04-04, 02:17:04,VALID,919.938,VALID,0,VALID,96.764,VALID,0,VALID,19.5843,VALID,8,VALID,0,
2012-04-04, 02:18:04,VALID,919.916,VALID,0,VALID,96.7488,VALID,0,VALID,19.5843,VALID,8,VALID,0,
2012-04-04, 02:19:04,VALID,919.922,VALID,0,VALID,96.7107,VALID,0,VALID,19.5453,VALID,8,VALID,0,
2012-04-04, 02:20:04,VALID,919.87,VALID,0,VALID,96.6497,VALID,0,VALID,19.5453,VALID,8,VALID,0,
2012-04-04, 02:21:04,VALID,919.885,VALID,0,VALID,96.5353,VALID,0,VALID,19.5063,VALID,8,VALID,0,
2012-04-04, 02:22:04,VALID,919.9,VALID,0,VALID,96.4743,VALID,0,VALID,19.4673,VALID,8,VALID,0,
2012-04-04, 02:23:04,VALID,919.876,VALID,0,VALID,96.4667,VALID,0,VALID,19.4673,VALID,8,VALID,0,
2012-04-04, 02:24:04,VALID,919.877,VALID,0,VALID,96.0627,VALID,0,VALID,19.3113,VALID,8,VALID,0.267578,
2012-04-04, 02:25:04,VALID,919.855,VALID,0,VALID,96.1313,VALID,0,VALID,19.2319,VALID,8,VALID,0.449219,
2012-04-04, 02:26:04,VALID,919.834,VALID,0,VALID,96.3371,VALID,0,VALID,19.2528,VALID,8,VALID,0.28125,
2012-04-04, 02:27:04,VALID,919.833,VALID,0,VALID,96.5887,VALID,0,VALID,19.3113,VALID,8,VALID,0,
2012-04-04, 02:28:04,VALID,919.843,VALID,0,VALID,96.6649,VALID,0,VALID,19.3503,VALID,8,VALID,0,
2012-04-04, 02:29:04,VALID,919.848,VALID,0,VALID,96.703,VALID,0,VALID,19.3698,VALID,8,VALID,0,
2012-04-04, 02:30:04,VALID,919.828,VALID,0,VALID,96.6649,VALID,0,VALID,19.3698,VALID,8,VALID,0,
2012-04-04, 02:31:04,VALID,919.793,VALID,0,VALID,96.7564,VALID,0,VALID,19.3698,VALID,8,VALID,0.0433594,
2012-04-04, 02:32:04,VALID,919.766,VALID,0,VALID,96.8326,VALID,0,VALID,19.4283,VALID,8,VALID,0,
2012-04-04, 02:33:04,VALID,919.744,VALID,0,VALID,96.8174,VALID,0,VALID,19.4673,VALID,8,VALID,0,
2012-04-04, 02:34:04,VALID,919.737,VALID,0,VALID,96.7564,VALID,0,VALID,19.4673,VALID,8,VALID,0,
2012-04-04, 02:35:04,VALID,919.695,VALID,0,VALID,96.7869,VALID,0,VALID,19.4673,VALID,8,VALID,0,
2012-04-04, 02:36:04,VALID,919.699,VALID,0,VALID,96.7335,VALID,0,VALID,19.4673,VALID,8,VALID,0,
2012-04-04, 02:37:04,VALID,919.683,VALID,0,VALID,96.7183,VALID,0,VALID,19.4478,VALID,8,VALID,0,
2012-04-04, 02:38:04,VALID,919.664,VALID,0,VALID,96.7411,VALID,0,VALID,19.4883,VALID,8,VALID,0,
2012-04-04, 02:39:04,VALID,919.64,VALID,0,VALID,96.7259,VALID,0,VALID,19.4478,VALID,8,VALID,0,
2012-04-04, 02:40:04,VALID,919.607,VALID,0,VALID,96.6802,VALID,0,VALID,19.4298,VALID,8,VALID,0,
2012-04-04, 02:41:04,VALID,919.615,VALID,0,VALID,96.642,VALID,0,VALID,19.3893,VALID,8,VALID,0,
2012-04-04, 02:42:04,VALID,919.589,VALID,0,VALID,96.5963,VALID,0,VALID,19.3893,VALID,8,VALID,0,
2012-04-04, 02:43:04,VALID,919.57,VALID,0,VALID,96.5963,VALID,0,VALID,19.3893,VALID,8,VALID,0,
2012-04-04, 02:44:04,VALID,919.559,VALID,0,VALID,96.5506,VALID,0,VALID,19.3698,VALID,8,VALID,0,
2012-04-04, 02:45:04,VALID,919.565,VALID,0,VALID,96.5048,VALID,0,VALID,19.3908,VALID,8,VALID,0,
2012-04-04, 02:46:04,VALID,919.576,VALID,0,VALID,96.4896,VALID,0,VALID,19.3503,VALID,8,VALID,0,
2012-04-04, 02:47:04,VALID,919.559,VALID,0,VALID,96.5506,VALID,0,VALID,19.3698,VALID,8,VALID,0,
2012-04-04, 02:48:04,VALID,919.57,VALID,0,VALID,96.5353,VALID,0,VALID,19.3503,VALID,8,VALID,0,
2012-04-04, 02:49:04,VALID,919.585,VALID,0,VALID,96.4667,VALID,0,VALID,19.3518,VALID,8,VALID,0,
2012-04-04, 02:50:04,VALID,919.574,VALID,0,VALID,96.4743,VALID,0,VALID,19.3518,VALID,8,VALID,0,
2012-04-04, 02:51:04,VALID,919.589,VALID,0,VALID,96.3524,VALID,0,VALID,19.3518,VALID,8,VALID,0,
2012-04-04, 02:52:04,VALID,919.517,VALID,0,VALID,96.3219,VALID,0,VALID,19.3323,VALID,8,VALID,0,
2012-04-04, 02:53:04,VALID,919.53,VALID,0,VALID,96.3371,VALID,0,VALID,19.3713,VALID,8,VALID,0,
2012-04-04, 02:54:04,VALID,919.542,VALID,0,VALID,96.2761,VALID,0,VALID,19.3698,VALID,8,VALID,0,
2012-04-04, 02:55:04,VALID,919.518,VALID,0,VALID,96.2685,VALID,0,VALID,19.3908,VALID,8,VALID,0,
2012-04-04, 02:56:04,VALID,919.525,VALID,0,VALID,96.1999,VALID,0,VALID,19.3698,VALID,8,VALID,0,
2012-04-04, 02:57:04,VALID,919.491,VALID,0,VALID,96.2609,VALID,0,VALID,19.4298,VALID,8,VALID,0,
2012-04-04, 02:58:04,VALID,919.521,VALID,0,VALID,96.1465,VALID,0,VALID,19.3893,VALID,8,VALID,0,
2012-04-04, 02:59:04,VALID,919.511,VALID,0,VALID,96.2075,VALID,0,VALID,19.4088,VALID,8,VALID,0,
2012-04-04, 03:00:04,VALID,919.518,VALID,0,VALID,96.2456,VALID,0,VALID,19.4088,VALID,8,VALID,0.174609,
2012-04-04, 03:01:04,VALID,919.499,VALID,0,VALID,96.2228,VALID,0,VALID,19.4103,VALID,8,VALID,0.253906,
2012-04-04, 03:02:04,VALID,919.503,VALID,0,VALID,96.2075,VALID,0,VALID,19.3698,VALID,8,VALID,0.357812,
2012-04-04, 03:03:04,VALID,919.475,VALID,0,VALID,96.1618,VALID,0,VALID,19.3698,VALID,8,VALID,0.384766,
2012-04-04, 03:04:04,VALID,919.484,VALID,0,VALID,96.1084,VALID,0,VALID,19.3698,VALID,8,VALID,0.536328,
2012-04-04, 03:05:04,VALID,919.479,VALID,0,VALID,96.0017,VALID,0,VALID,19.3698,VALID,8,VALID,0.8125,
2012-04-04, 03:06:04,VALID,919.455,VALID,0,VALID,95.8873,VALID,0,VALID,19.3698,VALID,8,VALID,0.948438,
2012-04-04, 03:07:04,VALID,919.479,VALID,0,VALID,95.6967,VALID,0,VALID,19.3893,VALID,8,VALID,0.863672,
2012-04-04, 03:08:04,VALID,919.492,VALID,0,VALID,95.5214,VALID,0,VALID,19.3893,VALID,8,VALID,0.625,
2012-04-04, 03:09:04,VALID,919.51,VALID,0,VALID,95.3308,VALID,0,VALID,19.4088,VALID,8,VALID,0.680469,
2012-04-04, 03:10:04,VALID,919.471,VALID,0,VALID,95.125,VALID,0,VALID,19.3893,VALID,8,VALID,0.915234,
2012-04-04, 03:11:04,VALID,919.469,VALID,0,VALID,95.0411,VALID,0,VALID,19.3893,VALID,8,VALID,0.809375,
2012-04-04, 03:12:04,VALID,919.422,VALID,0,VALID,94.9878,VALID,0,VALID,19.3698,VALID,8,VALID,0.545703,
2012-04-04, 03:13:04,VALID,919.407,VALID,0,VALID,95.0106,VALID,0,VALID,19.3518,VALID,8,VALID,0.887109,
2012-04-04, 03:14:04,VALID,919.387,VALID,0,VALID,95.1402,VALID,0,VALID,19.2933,VALID,8,VALID,0.893359,
2012-04-04, 03:15:04,VALID,919.357,VALID,0,VALID,95.4604,VALID,0,VALID,19.2933,VALID,8,VALID,1.06367,
2012-04-04, 03:16:04,VALID,919.37,VALID,0,VALID,95.5824,VALID,0,VALID,19.2334,VALID,8,VALID,0.445703,
2012-04-04, 03:17:04,VALID,919.353,VALID,0,VALID,95.773,VALID,0,VALID,19.2139,VALID,8,VALID,0.538281,
2012-04-04, 03:18:04,VALID,919.36,VALID,0,VALID,95.9102,VALID,0,VALID,19.1944,VALID,8,VALID,0.614062,
2012-04-04, 03:19:04,VALID,919.348,VALID,0,VALID,96.0474,VALID,0,VALID,19.1734,VALID,8,VALID,0.808984,
2012-04-04, 03:20:04,VALID,919.337,VALID,0,VALID,96.177,VALID,0,VALID,19.1944,VALID,8,VALID,0.714453,
2012-04-04, 03:21:04,VALID,919.372,VALID,0,VALID,96.299,VALID,0,VALID,19.2153,VALID,8,VALID,0.973437,
2012-04-04, 03:22:04,VALID,919.363,VALID,0,VALID,96.3752,VALID,0,VALID,19.1749,VALID,8,VALID,0.946875,
2012-04-04, 03:23:04,VALID,919.391,VALID,0,VALID,96.3905,VALID,0,VALID,19.1554,VALID,8,VALID,0.71875,
2012-04-04, 03:24:04,VALID,919.403,VALID,0,VALID,96.4057,VALID,0,VALID,19.1178,VALID,89,VALID,0.716016,
2012-04-04, 03:25:04,VALID,919.395,VALID,0,VALID,96.5277,VALID,0,VALID,19.1373,VALID,89,VALID,1.24727,
2012-04-04, 03:26:04,VALID,919.39,VALID,0,VALID,96.642,VALID,0,VALID,19.1359,VALID,145,VALID,0.953516,
2012-04-04, 03:27:04,VALID,919.421,VALID,0,VALID,96.6725,VALID,0,VALID,19.1359,VALID,144,VALID,0.589063,
2012-04-04, 03:28:04,VALID,919.4,VALID,0,VALID,96.703,VALID,0,VALID,19.1359,VALID,144,VALID,0.678906,
2012-04-04, 03:29:04,VALID,919.418,VALID,0,VALID,96.7488,VALID,0,VALID,19.1359,VALID,144,VALID,0.890234,
2012-04-04, 03:30:04,VALID,919.412,VALID,0,VALID,96.7793,VALID,0,VALID,19.1359,VALID,143,VALID,0.992969,
2012-04-04, 03:31:04,VALID,919.425,VALID,0,VALID,96.8631,VALID,0,VALID,19.1944,VALID,134,VALID,1.08672,
2012-04-04, 03:32:04,VALID,919.399,VALID,0,VALID,96.8631,VALID,0,VALID,19.1944,VALID,134,VALID,0.933594,
2012-04-04, 03:33:04,VALID,919.414,VALID,0,VALID,96.886,VALID,0,VALID,19.2139,VALID,134,VALID,0.873047,
2012-04-04, 03:34:04,VALID,919.406,VALID,0,VALID,96.8936,VALID,0,VALID,19.2348,VALID,134,VALID,1.10312,
2012-04-04, 03:35:04,VALID,919.449,VALID,0,VALID,96.9394,VALID,0,VALID,19.2334,VALID,134,VALID,0.869141,
2012-04-04, 03:36:04,VALID,919.452,VALID,0,VALID,96.947,VALID,0,VALID,19.2528,VALID,134,VALID,0.832031,
2012-04-04, 03:37:04,VALID,919.448,VALID,0,VALID,96.9622,VALID,0,VALID,19.3128,VALID,134,VALID,0.960156,
2012-04-04, 03:38:04,VALID,919.44,VALID,0,VALID,96.9317,VALID,0,VALID,19.2918,VALID,134,VALID,0.886719,
2012-04-04, 03:39:04,VALID,919.469,VALID,0,VALID,96.8936,VALID,0,VALID,19.3113,VALID,134,VALID,0.769922,
2012-04-04, 03:40:04,VALID,919.46,VALID,0,VALID,96.8936,VALID,0,VALID,19.3323,VALID,134,VALID,0.938281,
2012-04-04, 03:41:04,VALID,919.463,VALID,0,VALID,96.8021,VALID,0,VALID,19.2933,VALID,134,VALID,0.453516,
2012-04-04, 03:42:04,VALID,919.456,VALID,0,VALID,96.7716,VALID,0,VALID,19.2723,VALID,134,VALID,0.811719,
2012-04-04, 03:43:04,VALID,919.466,VALID,0,VALID,96.7869,VALID,0,VALID,19.2528,VALID,134,VALID,0.852734,
2012-04-04, 03:44:04,VALID,919.477,VALID,0,VALID,96.8326,VALID,0,VALID,19.2723,VALID,134,VALID,0.930859,
2012-04-04, 03:45:04,VALID,919.486,VALID,0,VALID,96.8326,VALID,0,VALID,19.2723,VALID,134,VALID,0.570313,
2012-04-04, 03:46:04,VALID,919.479,VALID,0,VALID,96.8021,VALID,0,VALID,19.2709,VALID,134,VALID,0.644531,
2012-04-04, 03:47:04,VALID,919.511,VALID,0,VALID,96.7564,VALID,0,VALID,19.2723,VALID,134,VALID,0.305859,
2012-04-04, 03:48:04,VALID,919.53,VALID,0,VALID,96.7107,VALID,0,VALID,19.2723,VALID,134,VALID,0.378516,
2012-04-04, 03:49:04,VALID,919.512,VALID,0,VALID,96.6725,VALID,0,VALID,19.2933,VALID,134,VALID,0,
2012-04-04, 03:50:04,VALID,919.51,VALID,0,VALID,96.5963,VALID,0,VALID,19.2334,VALID,134,VALID,0,
2012-04-04, 03:51:04,VALID,919.539,VALID,0,VALID,96.5811,VALID,0,VALID,19.2543,VALID,134,VALID,0,
2012-04-04, 03:52:04,VALID,919.541,VALID,0,VALID,96.5658,VALID,0,VALID,19.2153,VALID,134,VALID,0,